Time,TemperatureF,DewpointF,PressureIn,WindDirection,WindDirectionDegrees,WindSpeedMPH,WindSpeedGustMPH,Humidity,HourlyPrecipIn,Conditions,Clouds,dailyrainin,SoftwareType,DateUTC
2013-03-25 00:00:00,28.2,25.6,29.18,NNW,336,0.0,0.0,90,0.00,,---,0.00,VWS V12.08,2013-03-25 05:00:00,
2013-03-25 00:06:00,28.2,25.6,29.17,NNW,335,0.0,0.0,90,0.00,,---,0.00,VWS V12.08,2013-03-25 05:06:00,
2013-03-25 00:16:00,28.2,25.6,29.18,NNW,347,0.0,4.0,90,0.00,,---,0.00,VWS V12.08,2013-03-25 05:16:00,
2013-03-25 00:21:00,28.2,25.9,29.18,NNW,338,0.0,4.0,91,0.00,,---,0.00,VWS V12.08,2013-03-25 05:21:00,
2013-03-25 00:27:00,28.2,25.9,29.18,NNW,346,0.0,4.0,91,0.00,,---,0.00,VWS V12.08,2013-03-25 05:27:00,
2013-03-25 00:33:00,28.2,25.6,29.18,NNW,339,0.0,0.0,90,0.00,,---,0.00,VWS V12.08,2013-03-25 05:33:00,
2013-03-25 00:38:00,28.2,25.6,29.18,NNW,330,0.0,0.0,90,0.00,,---,0.00,VWS V12.08,2013-03-25 05:38:00,
2013-03-25 00:43:00,28.2,25.9,29.18,North,355,0.0,0.0,91,0.00,,---,0.00,VWS V12.08,2013-03-25 05:43:00,
2013-03-25 00:49:00,28.2,25.6,29.18,NNW,336,0.0,1.0,90,0.00,,---,0.00,VWS V12.08,2013-03-25 05:49:00,
2013-03-25 00:55:00,28.2,25.6,29.18,NNW,348,0.0,1.0,90,0.00,,---,0.00,VWS V12.08,2013-03-25 05:55:00,
2013-03-25 01:02:00,28.1,25.5,29.18,NNW,343,0.0,0.0,90,0.00,,---,0.00,VWS V12.08,2013-03-25 06:02:00,
2013-03-25 01:08:00,28.1,25.5,29.18,North,350,0.0,0.0,90,0.00,,---,0.00,VWS V12.08,2013-03-25 06:08:00,
2013-03-25 01:14:00,28.1,25.5,29.18,North,349,0.0,0.0,90,0.00,,---,0.00,VWS V12.08,2013-03-25 06:14:00,
2013-03-25 01:19:00,28.1,25.5,29.19,North,351,0.0,0.0,90,0.00,,---,0.00,VWS V12.08,2013-03-25 06:19:00,
2013-03-25 01:24:00,28.1,25.5,29.18,NNW,347,0.0,0.0,90,0.00,,---,0.00,VWS V12.08,2013-03-25 06:24:00,
2013-03-25 01:29:00,27.9,25.4,29.19,North,359,0.0,0.0,90,0.00,,---,0.00,VWS V12.08,2013-03-25 06:29:00,
2013-03-25 01:34:00,27.8,25.2,29.19,North,1,0.0,0.0,90,0.00,,---,0.00,VWS V12.08,2013-03-25 06:34:00,
2013-03-25 01:40:00,27.8,25.2,29.18,North,356,0.0,0.0,90,0.00,,---,0.00,VWS V12.08,2013-03-25 06:40:00,
2013-03-25 01:45:00,27.7,25.2,29.19,North,356,0.0,0.0,90,0.00,,---,0.00,VWS V12.08,2013-03-25 06:45:00,
2013-03-25 01:53:00,27.7,25.2,29.19,NNW,346,0.0,0.0,90,0.00,,---,0.00,VWS V12.08,2013-03-25 06:53:00,
2013-03-25 01:59:00,27.7,25.2,29.18,North,356,0.0,0.0,90,0.00,,---,0.00,VWS V12.08,2013-03-25 06:59:00,
2013-03-25 02:04:00,27.7,25.2,29.19,North,353,0.0,0.0,90,0.00,,---,0.00,VWS V12.08,2013-03-25 07:04:00,
2013-03-25 02:14:00,27.8,25.2,29.19,NNW,335,0.0,0.0,90,0.00,,---,0.00,VWS V12.08,2013-03-25 07:14:00,
2013-03-25 02:20:00,27.8,25.2,29.18,NNW,340,0.0,0.0,90,0.00,,---,0.00,VWS V12.08,2013-03-25 07:20:00,
2013-03-25 02:25:00,27.8,25.2,29.19,NNW,347,0.0,0.0,90,0.00,,---,0.00,VWS V12.08,2013-03-25 07:25:00,
2013-03-25 02:31:00,27.9,25.4,29.19,NNW,344,0.0,0.0,90,0.00,,---,0.00,VWS V12.08,2013-03-25 07:31:00,
2013-03-25 02:37:00,27.9,25.4,29.18,NW,324,0.0,0.0,90,0.00,,---,0.00,VWS V12.08,2013-03-25 07:37:00,
2013-03-25 02:43:00,27.8,25.2,29.19,NNW,342,0.0,0.0,90,0.00,,---,0.00,VWS V12.08,2013-03-25 07:43:00,
2013-03-25 02:48:00,27.8,25.2,29.19,NNW,342,0.0,0.0,90,0.00,,---,0.00,VWS V12.08,2013-03-25 07:48:00,
2013-03-25 02:53:00,27.8,25.2,29.18,NNW,345,0.0,0.0,90,0.00,,---,0.00,VWS V12.08,2013-03-25 07:53:00,
2013-03-25 02:59:00,27.7,25.2,29.19,NNW,330,0.0,0.0,90,0.00,,---,0.00,VWS V12.08,2013-03-25 07:59:00,
2013-03-25 03:05:00,27.7,25.2,29.18,NNW,336,0.0,0.0,90,0.00,,---,0.00,VWS V12.08,2013-03-25 08:05:00,
2013-03-25 03:10:00,27.6,25.1,29.18,North,351,0.0,0.0,90,0.00,,---,0.00,VWS V12.08,2013-03-25 08:10:00,
2013-03-25 03:16:00,27.5,25.0,29.18,NNW,339,0.0,0.0,90,0.00,,---,0.00,VWS V12.08,2013-03-25 08:16:00,
2013-03-25 03:21:00,27.5,25.0,29.18,NNW,337,0.0,1.0,90,0.00,,---,0.00,VWS V12.08,2013-03-25 08:21:00,
2013-03-25 03:26:00,27.5,25.0,29.18,North,356,0.0,1.0,90,0.00,,---,0.00,VWS V12.08,2013-03-25 08:26:00,
2013-03-25 03:31:00,27.4,24.9,29.18,NNW,341,0.0,0.0,90,0.00,,---,0.00,VWS V12.08,2013-03-25 08:31:00,
2013-03-25 03:36:00,27.4,24.9,29.19,NNW,344,0.0,0.0,90,0.00,,---,0.00,VWS V12.08,2013-03-25 08:36:00,
2013-03-25 03:41:00,27.4,24.9,29.18,NNW,338,0.0,7.0,90,0.00,,---,0.00,VWS V12.08,2013-03-25 08:41:00,
2013-03-25 03:47:00,27.4,24.9,29.18,NNW,334,0.0,7.0,90,0.00,,---,0.00,VWS V12.08,2013-03-25 08:47:00,
2013-03-25 03:52:00,27.3,24.8,29.18,NNW,342,0.0,7.0,90,0.00,,---,0.00,VWS V12.08,2013-03-25 08:52:00,
2013-03-25 03:57:00,27.3,24.8,29.18,NNW,335,0.0,7.0,90,0.00,,---,0.00,VWS V12.08,2013-03-25 08:57:00,
2013-03-25 04:03:00,27.3,24.8,29.17,NNW,342,0.0,0.0,90,0.00,,---,0.00,VWS V12.08,2013-03-25 09:03:00,
2013-03-25 04:08:00,27.3,24.8,29.18,NNW,345,0.0,0.0,90,0.00,,---,0.00,VWS V12.08,2013-03-25 09:08:00,
2013-03-25 04:30:00,27.3,24.8,29.18,NNW,341,0.0,6.0,90,0.00,,---,0.00,VWS V12.08,2013-03-25 09:30:00,
2013-03-25 05:19:00,27.4,24.9,29.19,North,350,0.0,0.0,90,0.00,,---,0.00,VWS V12.08,2013-03-25 10:19:00,
2013-03-25 05:25:00,27.4,24.9,29.19,NNW,337,0.0,0.0,90,0.00,,---,0.00,VWS V12.08,2013-03-25 10:25:00,
2013-03-25 05:30:00,27.4,24.9,29.19,NNW,334,0.0,0.0,90,0.00,,---,0.00,VWS V12.08,2013-03-25 10:30:00,
2013-03-25 05:35:00,27.4,24.9,29.19,NNW,341,0.0,0.0,90,0.00,,---,0.00,VWS V12.08,2013-03-25 10:35:00,
2013-03-25 05:40:00,27.5,24.7,29.19,NNW,335,0.0,0.0,89,0.00,,---,0.00,VWS V12.08,2013-03-25 10:40:00,
2013-03-25 05:45:00,27.5,24.7,29.20,NNW,345,0.0,0.0,89,0.00,,---,0.00,VWS V12.08,2013-03-25 10:45:00,
2013-03-25 05:50:00,27.4,24.6,29.19,NNW,332,0.0,0.0,89,0.00,,---,0.00,VWS V12.08,2013-03-25 10:50:00,
2013-03-25 05:57:00,27.4,24.6,29.20,NNW,333,0.0,0.0,89,0.00,,---,0.00,VWS V12.08,2013-03-25 10:57:00,
2013-03-25 06:02:00,27.4,24.6,29.20,NNW,339,0.0,0.0,89,0.00,,---,0.00,VWS V12.08,2013-03-25 11:02:00,
2013-03-25 06:09:00,27.4,24.6,29.20,NNW,347,0.0,0.0,89,0.00,,---,0.00,VWS V12.08,2013-03-25 11:09:00,
2013-03-25 06:15:00,27.3,24.5,29.20,NNW,335,0.0,0.0,89,0.00,,---,0.00,VWS V12.08,2013-03-25 11:15:00,
2013-03-25 06:20:00,27.3,24.2,29.20,NNW,344,0.0,0.0,88,0.00,,---,0.00,VWS V12.08,2013-03-25 11:20:00,
2013-03-25 06:25:00,27.3,24.2,29.20,NNW,337,0.0,0.0,88,0.00,,---,0.00,VWS V12.08,2013-03-25 11:25:00,
2013-03-25 06:30:00,27.2,24.1,29.20,NNW,339,0.0,0.0,88,0.00,,---,0.00,VWS V12.08,2013-03-25 11:30:00,
2013-03-25 06:35:00,27.1,24.0,29.21,North,350,0.0,0.0,88,0.00,,---,0.00,VWS V12.08,2013-03-25 11:35:00,
2013-03-25 06:42:00,27.1,23.8,29.20,NNW,345,0.0,0.0,87,0.00,,---,0.00,VWS V12.08,2013-03-25 11:42:00,
2013-03-25 06:49:00,27.0,23.6,29.21,NNW,346,0.0,0.0,87,0.00,,---,0.00,VWS V12.08,2013-03-25 11:49:00,
2013-03-25 06:55:00,27.0,23.6,29.21,NNW,347,0.0,9.0,87,0.00,,---,0.00,VWS V12.08,2013-03-25 11:55:00,
2013-03-25 07:02:00,26.9,23.3,29.22,North,354,0.0,9.0,86,0.00,,---,0.00,VWS V12.08,2013-03-25 12:02:00,
2013-03-25 07:07:00,26.9,23.0,29.22,NNW,337,0.0,9.0,85,0.00,,---,0.00,VWS V12.08,2013-03-25 12:07:00,
2013-03-25 07:16:00,26.9,22.4,29.22,NNW,331,0.0,9.0,83,0.00,,---,0.00,VWS V12.08,2013-03-25 12:16:00,
2013-03-25 07:22:00,26.9,22.4,29.23,NNW,346,0.0,9.0,83,0.00,,---,0.00,VWS V12.08,2013-03-25 12:22:00,
2013-03-25 07:27:00,27.0,22.2,29.23,NNW,343,0.0,9.0,82,0.00,,---,0.00,VWS V12.08,2013-03-25 12:27:00,
2013-03-25 07:32:00,27.0,22.0,29.23,NNW,338,0.0,0.0,81,0.00,,---,0.00,VWS V12.08,2013-03-25 12:32:00,
2013-03-25 07:37:00,26.9,21.6,29.23,NNW,334,0.0,0.0,80,0.00,,---,0.00,VWS V12.08,2013-03-25 12:37:00,
2013-03-25 07:43:00,26.8,20.9,29.23,NNW,344,0.0,0.0,78,0.00,,---,0.00,VWS V12.08,2013-03-25 12:43:00,
2013-03-25 07:48:00,26.7,20.5,29.24,NNW,343,0.0,0.0,77,0.00,,---,0.00,VWS V12.08,2013-03-25 12:48:00,
2013-03-25 07:54:00,26.6,20.1,29.24,NNW,339,0.0,0.0,76,0.00,,---,0.00,VWS V12.08,2013-03-25 12:54:00,
2013-03-25 07:59:00,26.5,19.7,29.24,NNW,345,0.0,0.0,75,0.00,,---,0.00,VWS V12.08,2013-03-25 12:59:00,
2013-03-25 08:04:00,26.5,20.0,29.24,NNW,346,0.0,0.0,76,0.00,,---,0.00,VWS V12.08,2013-03-25 13:04:00,
2013-03-25 08:10:00,26.4,19.6,29.25,NNW,342,0.0,0.0,75,0.00,,---,0.00,VWS V12.08,2013-03-25 13:10:00,
2013-03-25 08:16:00,26.4,19.6,29.25,NNW,336,0.0,0.0,75,0.00,,---,0.00,VWS V12.08,2013-03-25 13:16:00,
2013-03-25 08:22:00,26.4,19.6,29.25,North,353,0.0,0.0,75,0.00,,---,0.00,VWS V12.08,2013-03-25 13:22:00,
2013-03-25 08:28:00,26.4,19.6,29.25,North,349,0.0,0.0,75,0.00,,---,0.00,VWS V12.08,2013-03-25 13:28:00,
2013-03-25 08:33:00,26.4,19.6,29.26,NNW,342,0.0,0.0,75,0.00,,---,0.00,VWS V12.08,2013-03-25 13:33:00,
2013-03-25 08:39:00,26.5,19.7,29.26,NNW,341,0.0,0.0,75,0.00,,---,0.00,VWS V12.08,2013-03-25 13:39:00,
2013-03-25 08:44:00,26.5,19.7,29.25,NNW,341,0.0,0.0,75,0.00,,---,0.00,VWS V12.08,2013-03-25 13:44:00,
2013-03-25 08:49:00,26.6,19.8,29.26,NNW,336,0.0,9.0,75,0.00,,---,0.00,VWS V12.08,2013-03-25 13:49:00,
2013-03-25 08:54:00,26.6,19.8,29.26,NNW,346,0.0,9.0,75,0.00,,---,0.00,VWS V12.08,2013-03-25 13:54:00,
2013-03-25 09:00:00,26.7,19.9,29.26,NNW,337,0.0,9.0,75,0.00,,---,0.00,VWS V12.08,2013-03-25 14:00:00,
2013-03-25 09:05:00,26.7,19.9,29.27,NNW,339,0.0,0.0,75,0.00,,---,0.00,VWS V12.08,2013-03-25 14:05:00,
2013-03-25 09:19:00,26.8,20.0,29.27,North,349,0.0,0.0,75,0.00,,---,0.00,VWS V12.08,2013-03-25 14:19:00,
2013-03-25 09:25:00,26.8,19.6,29.27,NNW,344,0.0,0.0,74,0.00,,---,0.00,VWS V12.08,2013-03-25 14:25:00,
2013-03-25 09:30:00,26.8,19.6,29.28,North,351,0.0,0.0,74,0.00,,---,0.00,VWS V12.08,2013-03-25 14:30:00,
2013-03-25 09:35:00,26.8,19.6,29.28,NNW,345,0.0,0.0,74,0.00,,---,0.00,VWS V12.08,2013-03-25 14:35:00,
2013-03-25 09:40:00,26.8,19.3,29.28,NNW,344,0.0,0.0,73,0.00,,---,0.00,VWS V12.08,2013-03-25 14:40:00,
2013-03-25 09:46:00,26.9,19.4,29.28,North,359,0.0,0.0,73,0.00,,---,0.00,VWS V12.08,2013-03-25 14:46:00,
2013-03-25 09:51:00,26.9,19.4,29.29,North,355,0.0,0.0,73,0.00,,---,0.00,VWS V12.08,2013-03-25 14:51:00,
2013-03-25 09:57:00,27.0,19.2,29.28,NNW,346,0.0,0.0,72,0.00,,---,0.00,VWS V12.08,2013-03-25 14:57:00,
2013-03-25 10:02:00,27.1,19.3,29.29,NNW,339,0.0,0.0,72,0.00,,---,0.00,VWS V12.08,2013-03-25 15:02:00,
2013-03-25 10:07:00,27.2,19.4,29.29,NNW,338,0.0,0.0,72,0.00,,---,0.00,VWS V12.08,2013-03-25 15:07:00,
2013-03-25 10:13:00,27.2,19.4,29.29,NNW,347,0.0,10.0,72,0.00,,---,0.00,VWS V12.08,2013-03-25 15:13:00,
2013-03-25 10:20:00,27.3,19.5,29.30,NNW,336,0.0,10.0,72,0.00,,---,0.00,VWS V12.08,2013-03-25 15:20:00,
2013-03-25 10:26:00,27.2,19.4,29.30,North,356,0.0,10.0,72,0.00,,---,0.00,VWS V12.08,2013-03-25 15:26:00,
2013-03-25 10:32:00,27.2,19.4,29.30,NNW,345,0.0,0.0,72,0.00,,---,0.00,VWS V12.08,2013-03-25 15:32:00,
2013-03-25 10:38:00,27.2,19.4,29.30,NNW,346,0.0,0.0,72,0.00,,---,0.00,VWS V12.08,2013-03-25 15:38:00,
2013-03-25 10:43:00,27.4,19.6,29.31,NNW,340,0.0,0.0,72,0.00,,---,0.00,VWS V12.08,2013-03-25 15:43:00,
2013-03-25 10:48:00,27.6,19.8,29.31,NNW,336,0.0,0.0,72,0.00,,---,0.00,VWS V12.08,2013-03-25 15:48:00,
2013-03-25 10:54:00,27.6,19.4,29.31,NNW,328,0.0,0.0,71,0.00,,---,0.00,VWS V12.08,2013-03-25 15:54:00,
2013-03-25 11:00:00,27.7,19.9,29.31,NNW,338,0.0,0.0,72,0.00,,---,0.00,VWS V12.08,2013-03-25 16:00:00,
2013-03-25 11:05:00,27.8,20.0,29.31,NNW,336,0.0,2.0,72,0.00,,---,0.00,VWS V12.08,2013-03-25 16:05:00,
2013-03-25 11:10:00,27.8,19.6,29.31,North,350,0.0,2.0,71,0.00,,---,0.00,VWS V12.08,2013-03-25 16:10:00,
2013-03-25 11:19:00,27.9,20.1,29.32,NNW,346,0.0,2.0,72,0.00,,---,0.00,VWS V12.08,2013-03-25 16:19:00,
2013-03-25 11:25:00,27.9,19.7,29.31,NW,322,0.0,2.0,71,0.00,,---,0.00,VWS V12.08,2013-03-25 16:25:00,
2013-03-25 11:31:00,27.8,20.0,29.32,NNW,333,0.0,5.0,72,0.00,,---,0.00,VWS V12.08,2013-03-25 16:31:00,
2013-03-25 11:36:00,28.0,20.2,29.32,NNW,344,0.0,5.0,72,0.00,,---,0.00,VWS V12.08,2013-03-25 16:36:00,
2013-03-25 11:42:00,27.9,20.1,29.32,NNW,329,0.0,10.0,72,0.00,,---,0.00,VWS V12.08,2013-03-25 16:42:00,
2013-03-25 11:49:00,27.8,19.6,29.33,NNW,341,6.0,11.0,71,0.00,,---,0.00,VWS V12.08,2013-03-25 16:49:00,
2013-03-25 11:55:00,28.0,20.2,29.33,North,356,0.0,11.0,72,0.00,,---,0.00,VWS V12.08,2013-03-25 16:55:00,
2013-03-25 12:01:00,28.2,20.0,29.33,NNW,336,0.0,0.0,71,0.00,,---,0.00,VWS V12.08,2013-03-25 17:01:00,
2013-03-25 12:06:00,28.1,19.9,29.33,NNW,335,0.0,0.0,71,0.00,,---,0.00,VWS V12.08,2013-03-25 17:06:00,
2013-03-25 12:11:00,28.2,20.0,29.32,North,351,0.0,8.0,71,0.00,,---,0.00,VWS V12.08,2013-03-25 17:11:00,
2013-03-25 12:16:00,28.4,20.2,29.33,NNW,334,0.0,8.0,71,0.00,,---,0.00,VWS V12.08,2013-03-25 17:16:00,
2013-03-25 12:22:00,28.4,20.2,29.33,NNW,327,0.0,8.0,71,0.00,,---,0.00,VWS V12.08,2013-03-25 17:22:00,
2013-03-25 12:27:00,28.5,20.3,29.32,North,354,0.0,8.0,71,0.00,,---,0.00,VWS V12.08,2013-03-25 17:27:00,
2013-03-25 12:32:00,28.6,20.1,29.33,North,351,0.0,0.0,70,0.00,,---,0.00,VWS V12.08,2013-03-25 17:32:00,
2013-03-25 12:38:00,28.8,20.3,29.33,NNW,338,0.0,0.0,70,0.00,,---,0.00,VWS V12.08,2013-03-25 17:38:00,
2013-03-25 12:43:00,29.0,20.8,29.33,North,359,0.0,0.0,71,0.01,,---,0.01,VWS V12.08,2013-03-25 17:43:00,
2013-03-25 12:48:00,29.1,20.9,29.33,NW,319,0.0,0.0,71,0.01,,---,0.01,VWS V12.08,2013-03-25 17:48:00,
2013-03-25 12:54:00,29.2,20.6,29.33,NNW,348,0.0,9.0,70,0.01,,---,0.01,VWS V12.08,2013-03-25 17:54:00,
2013-03-25 12:59:00,29.6,21.4,29.33,NNW,329,0.0,9.0,71,0.01,,---,0.01,VWS V12.08,2013-03-25 17:59:00,
2013-03-25 13:04:00,29.7,21.1,29.33,NNW,344,0.0,11.0,70,0.01,,---,0.01,VWS V12.08,2013-03-25 18:04:00,
2013-03-25 13:12:00,30.0,21.4,29.33,NNW,346,0.0,11.0,70,0.01,,---,0.01,VWS V12.08,2013-03-25 18:12:00,
2013-03-25 13:21:00,30.5,21.6,29.33,NNW,343,0.0,11.0,69,0.01,,---,0.01,VWS V12.08,2013-03-25 18:21:00,
2013-03-25 13:29:00,30.9,21.9,29.33,NNW,335,0.0,11.0,69,0.01,,---,0.01,VWS V12.08,2013-03-25 18:29:00,
2013-03-25 13:34:00,30.9,21.9,29.33,NW,324,11.0,11.0,69,0.01,,---,0.01,VWS V12.08,2013-03-25 18:34:00,
2013-03-25 13:40:00,30.8,21.9,29.33,NNW,342,0.0,11.0,69,0.01,,---,0.01,VWS V12.08,2013-03-25 18:40:00,
2013-03-25 13:45:00,30.9,21.6,29.33,North,349,0.0,11.0,68,0.01,,---,0.01,VWS V12.08,2013-03-25 18:45:00,
2013-03-25 13:50:00,31.1,21.8,29.33,North,353,0.0,11.0,68,0.01,,---,0.01,VWS V12.08,2013-03-25 18:50:00,
2013-03-25 13:55:00,31.5,22.5,29.34,NNW,327,0.0,11.0,69,0.01,,---,0.01,VWS V12.08,2013-03-25 18:55:00,
2013-03-25 14:00:00,31.5,22.2,29.34,NNW,335,0.0,5.0,68,0.01,,---,0.01,VWS V12.08,2013-03-25 19:00:00,
2013-03-25 14:05:00,31.8,22.5,29.33,NW,323,11.0,12.0,68,0.00,,---,0.01,VWS V12.08,2013-03-25 19:05:00,
2013-03-25 14:10:00,31.9,22.5,29.33,NNW,341,0.0,12.0,68,0.00,,---,0.01,VWS V12.08,2013-03-25 19:10:00,
2013-03-25 14:15:00,32.2,22.8,29.33,NW,308,0.0,12.0,68,0.00,,---,0.01,VWS V12.08,2013-03-25 19:15:00,
2013-03-25 14:20:00,32.2,22.8,29.33,North,356,0.0,12.0,68,0.01,,---,0.02,VWS V12.08,2013-03-25 19:20:00,
2013-03-25 14:25:00,32.3,22.6,29.33,North,359,0.0,12.0,67,0.01,,---,0.02,VWS V12.08,2013-03-25 19:25:00,
2013-03-25 14:30:00,32.6,22.9,29.33,North,358,9.0,11.0,67,0.01,,---,0.02,VWS V12.08,2013-03-25 19:30:00,
2013-03-25 14:35:00,32.6,22.9,29.33,NNW,336,6.0,11.0,67,0.02,,---,0.03,VWS V12.08,2013-03-25 19:35:00,
2013-03-25 14:40:00,32.5,23.1,29.34,North,359,0.0,11.0,68,0.02,,---,0.03,VWS V12.08,2013-03-25 19:40:00,
2013-03-25 14:47:00,32.9,23.2,29.34,NNW,347,0.0,11.0,67,0.02,,---,0.03,VWS V12.08,2013-03-25 19:47:00,
2013-03-25 14:53:00,33.0,23.2,29.34,NNW,338,0.0,11.0,67,0.03,,---,0.04,VWS V12.08,2013-03-25 19:53:00,
2013-03-25 14:58:00,33.1,23.4,29.34,NNW,332,6.0,13.0,67,0.03,,---,0.04,VWS V12.08,2013-03-25 19:58:00,
2013-03-25 15:04:00,33.7,23.9,29.34,North,357,7.0,9.0,67,0.03,,---,0.04,VWS V12.08,2013-03-25 20:04:00,
2013-03-25 15:10:00,33.5,23.4,29.35,NNW,336,0.0,10.0,66,0.03,,---,0.04,VWS V12.08,2013-03-25 20:10:00,
2013-03-25 15:16:00,33.5,23.4,29.34,NNW,340,6.0,11.0,66,0.04,,---,0.05,VWS V12.08,2013-03-25 20:16:00,
2013-03-25 15:21:00,33.7,23.6,29.35,NNW,343,1.0,12.0,66,0.04,,---,0.05,VWS V12.08,2013-03-25 20:21:00,
2013-03-25 15:26:00,33.9,23.4,29.35,NNW,328,0.0,12.0,65,0.04,,---,0.05,VWS V12.08,2013-03-25 20:26:00,
2013-03-25 15:31:00,34.1,24.0,29.34,NNW,335,0.0,9.0,66,0.04,,---,0.06,VWS V12.08,2013-03-25 20:31:00,
2013-03-25 15:36:00,34.2,24.0,29.35,North,358,0.0,9.0,66,0.04,,---,0.06,VWS V12.08,2013-03-25 20:36:00,
2013-03-25 15:42:00,34.6,24.4,29.35,North,357,0.0,9.0,66,0.04,,---,0.06,VWS V12.08,2013-03-25 20:42:00,
2013-03-25 15:48:00,34.5,24.0,29.35,NNW,335,0.0,9.0,65,0.05,,---,0.07,VWS V12.08,2013-03-25 20:48:00,
2013-03-25 15:54:00,34.5,24.0,29.35,North,359,0.0,9.0,65,0.05,,---,0.07,VWS V12.08,2013-03-25 20:54:00,
2013-03-25 15:59:00,34.7,24.1,29.35,North,359,0.0,9.0,65,0.05,,---,0.07,VWS V12.08,2013-03-25 20:59:00,
2013-03-25 16:05:00,34.7,23.8,29.35,North,359,0.0,1.0,64,0.03,,---,0.07,VWS V12.08,2013-03-25 21:05:00,
2013-03-25 16:10:00,34.8,23.9,29.36,North,356,0.0,1.0,64,0.04,,---,0.08,VWS V12.08,2013-03-25 21:10:00,
2013-03-25 16:16:00,34.8,23.5,29.36,North,359,0.0,1.0,63,0.04,,---,0.08,VWS V12.08,2013-03-25 21:16:00,
2013-03-25 16:21:00,34.6,23.3,29.36,NNW,338,0.0,1.0,63,0.04,,---,0.08,VWS V12.08,2013-03-25 21:21:00,
2013-03-25 16:27:00,34.9,23.6,29.36,NNW,342,0.0,1.0,63,0.04,,---,0.08,VWS V12.08,2013-03-25 21:27:00,
2013-03-25 16:32:00,35.0,22.9,29.36,NNW,340,0.0,0.0,61,0.02,,---,0.08,VWS V12.08,2013-03-25 21:32:00,
2013-03-25 16:37:00,34.9,22.8,29.36,NNW,337,0.0,0.0,61,0.02,,---,0.08,VWS V12.08,2013-03-25 21:37:00,
2013-03-25 16:43:00,35.1,23.0,29.35,NW,326,0.0,0.0,61,0.02,,---,0.08,VWS V12.08,2013-03-25 21:43:00,
2013-03-25 16:48:00,35.2,22.7,29.36,NNW,328,0.0,5.0,60,0.02,,---,0.08,VWS V12.08,2013-03-25 21:48:00,
2013-03-25 16:54:00,35.2,22.3,29.36,NNW,339,0.0,9.0,59,0.02,,---,0.08,VWS V12.08,2013-03-25 21:54:00,
2013-03-25 17:00:00,35.3,22.0,29.37,NNW,332,0.0,9.0,58,0.02,,---,0.08,VWS V12.08,2013-03-25 22:00:00,
2013-03-25 17:05:00,35.2,21.5,29.37,NW,325,0.0,0.0,57,0.01,,---,0.08,VWS V12.08,2013-03-25 22:05:00,
2013-03-25 17:13:00,35.3,21.2,29.37,NNW,337,0.0,0.0,56,0.01,,---,0.08,VWS V12.08,2013-03-25 22:13:00,
2013-03-25 17:19:00,35.2,21.5,29.37,NNW,345,0.0,5.0,57,0.01,,---,0.08,VWS V12.08,2013-03-25 22:19:00,
2013-03-25 17:25:00,35.1,20.6,29.37,NNW,329,10.0,13.0,55,0.01,,---,0.08,VWS V12.08,2013-03-25 22:25:00,
2013-03-25 17:30:00,35.0,20.9,29.38,NNW,339,0.0,0.0,56,0.01,,---,0.08,VWS V12.08,2013-03-25 22:30:00,
2013-03-25 17:35:00,35.0,21.3,29.38,North,349,5.0,12.0,57,0.00,,---,0.08,VWS V12.08,2013-03-25 22:35:00,
2013-03-25 17:42:00,34.8,20.7,29.37,NNW,339,0.0,12.0,56,0.00,,---,0.08,VWS V12.08,2013-03-25 22:42:00,
2013-03-25 17:47:00,34.8,20.7,29.38,NNW,332,0.0,12.0,56,0.00,,---,0.08,VWS V12.08,2013-03-25 22:47:00,
2013-03-25 17:52:00,34.7,20.6,29.38,NNW,338,0.0,12.0,56,0.00,,---,0.08,VWS V12.08,2013-03-25 22:52:00,
2013-03-25 17:57:00,34.6,21.4,29.38,NNW,348,0.0,12.0,58,0.00,,---,0.08,VWS V12.08,2013-03-25 22:57:00,
2013-03-25 18:02:00,34.5,21.3,29.38,NNW,346,0.0,1.0,58,0.00,,---,0.08,VWS V12.08,2013-03-25 23:02:00,
2013-03-25 18:08:00,34.3,21.5,29.39,NNW,335,0.0,1.0,59,0.00,,---,0.08,VWS V12.08,2013-03-25 23:08:00,
2013-03-25 18:20:00,34.1,22.1,29.39,North,353,0.0,1.0,61,0.00,,---,0.08,VWS V12.08,2013-03-25 23:20:00,
2013-03-25 18:26:00,34.0,22.4,29.39,NNW,344,0.0,1.0,62,0.00,,---,0.08,VWS V12.08,2013-03-25 23:26:00,
2013-03-25 18:31:00,34.0,22.4,29.40,North,349,0.0,0.0,62,0.00,,---,0.08,VWS V12.08,2013-03-25 23:31:00,
2013-03-25 18:36:00,33.9,22.3,29.40,NNW,348,0.0,0.0,62,0.00,,---,0.08,VWS V12.08,2013-03-25 23:36:00,
2013-03-25 18:41:00,33.9,22.3,29.40,NNW,345,0.0,0.0,62,0.00,,---,0.08,VWS V12.08,2013-03-25 23:41:00,
2013-03-25 18:46:00,33.8,22.2,29.40,NNW,338,0.0,0.0,62,0.00,,---,0.08,VWS V12.08,2013-03-25 23:46:00,
2013-03-25 18:51:00,33.6,22.0,29.41,NNW,328,0.0,0.0,62,0.00,,---,0.08,VWS V12.08,2013-03-25 23:51:00,
2013-03-25 18:56:00,33.5,22.3,29.41,NNW,338,0.0,0.0,63,0.00,,---,0.08,VWS V12.08,2013-03-25 23:56:00,
2013-03-25 19:02:00,33.3,22.5,29.41,NNW,338,0.0,0.0,64,0.00,,---,0.08,VWS V12.08,2013-03-26 00:02:00,
2013-03-25 19:07:00,33.1,22.3,29.42,NNW,343,0.0,1.0,64,0.00,,---,0.08,VWS V12.08,2013-03-26 00:07:00,
2013-03-25 19:12:00,33.0,22.2,29.41,NNW,339,0.0,1.0,64,0.00,,---,0.08,VWS V12.08,2013-03-26 00:12:00,
2013-03-25 19:18:00,32.8,22.0,29.42,NNW,346,0.0,1.0,64,0.00,,---,0.08,VWS V12.08,2013-03-26 00:18:00,
2013-03-25 19:24:00,32.6,22.1,29.42,NNW,345,0.0,1.0,65,0.00,,---,0.08,VWS V12.08,2013-03-26 00:24:00,
2013-03-25 19:29:00,32.4,22.0,29.42,NNW,342,0.0,1.0,65,0.00,,---,0.08,VWS V12.08,2013-03-26 00:29:00,
2013-03-25 19:34:00,32.2,21.8,29.42,NNW,343,0.0,0.0,65,0.00,,---,0.08,VWS V12.08,2013-03-26 00:34:00,
2013-03-25 19:40:00,32.1,21.7,29.42,NNW,338,0.0,0.0,65,0.00,,---,0.08,VWS V12.08,2013-03-26 00:40:00,
2013-03-25 19:45:00,32.1,21.7,29.42,NNW,334,0.0,0.0,65,0.00,,---,0.08,VWS V12.08,2013-03-26 00:45:00,
2013-03-25 19:51:00,32.0,21.6,29.43,NNW,336,0.0,0.0,65,0.00,,---,0.08,VWS V12.08,2013-03-26 00:51:00,
2013-03-25 19:56:00,31.9,21.9,29.43,NNW,337,0.0,0.0,66,0.00,,---,0.08,VWS V12.08,2013-03-26 00:56:00,
2013-03-25 20:01:00,31.7,21.7,29.43,NNW,337,0.0,0.0,66,0.00,,---,0.08,VWS V12.08,2013-03-26 01:01:00,
2013-03-25 20:07:00,31.5,21.8,29.43,NNW,338,0.0,0.0,67,0.00,,---,0.08,VWS V12.08,2013-03-26 01:07:00,
2013-03-25 20:18:00,31.1,21.4,29.43,NNW,338,0.0,0.0,67,0.00,,---,0.08,VWS V12.08,2013-03-26 01:18:00,
2013-03-25 20:24:00,30.9,21.6,29.43,NNW,338,0.0,0.0,68,0.00,,---,0.08,VWS V12.08,2013-03-26 01:24:00,
2013-03-25 20:29:00,30.8,21.5,29.44,NNW,338,0.0,0.0,68,0.00,,---,0.08,VWS V12.08,2013-03-26 01:29:00,
2013-03-25 20:34:00,30.8,21.5,29.43,NNW,342,0.0,0.0,68,0.00,,---,0.08,VWS V12.08,2013-03-26 01:34:00,
2013-03-25 20:40:00,30.7,21.8,29.44,NNW,341,0.0,0.0,69,0.00,,---,0.08,VWS V12.08,2013-03-26 01:40:00,
2013-03-25 20:47:00,30.6,21.6,29.44,NNW,342,0.0,0.0,69,0.00,,---,0.08,VWS V12.08,2013-03-26 01:47:00,
2013-03-25 20:52:00,30.6,22.0,29.44,NNW,341,0.0,0.0,70,0.00,,---,0.08,VWS V12.08,2013-03-26 01:52:00,
2013-03-25 20:57:00,30.6,21.6,29.44,NNW,341,0.0,0.0,69,0.00,,---,0.08,VWS V12.08,2013-03-26 01:57:00,
2013-03-25 21:03:00,30.5,21.6,29.44,NNW,341,0.0,0.0,69,0.00,,---,0.08,VWS V12.08,2013-03-26 02:03:00,
2013-03-25 21:12:00,30.4,21.8,29.45,NNW,344,0.0,0.0,70,0.00,,---,0.08,VWS V12.08,2013-03-26 02:12:00,
2013-03-25 21:18:00,30.3,21.7,29.45,NNW,343,0.0,0.0,70,0.00,,---,0.08,VWS V12.08,2013-03-26 02:18:00,
2013-03-25 21:23:00,30.2,21.6,29.45,NNW,343,0.0,0.0,70,0.00,,---,0.08,VWS V12.08,2013-03-26 02:23:00,
2013-03-25 21:28:00,30.1,21.5,29.45,NNW,343,0.0,0.0,70,0.00,,---,0.08,VWS V12.08,2013-03-26 02:28:00,
2013-03-25 21:33:00,30.0,21.4,29.45,NNW,343,0.0,0.0,70,0.00,,---,0.08,VWS V12.08,2013-03-26 02:33:00,
2013-03-25 21:39:00,29.8,21.2,29.45,NNW,343,0.0,0.0,70,0.00,,---,0.08,VWS V12.08,2013-03-26 02:39:00,
2013-03-25 21:45:00,29.6,21.4,29.46,NNW,342,0.0,0.0,71,0.00,,---,0.08,VWS V12.08,2013-03-26 02:45:00,
2013-03-25 21:51:00,29.4,21.2,29.46,NNW,344,0.0,0.0,71,0.00,,---,0.08,VWS V12.08,2013-03-26 02:51:00,
2013-03-25 21:56:00,29.3,21.1,29.46,NNW,344,0.0,0.0,71,0.00,,---,0.08,VWS V12.08,2013-03-26 02:56:00,
2013-03-25 22:01:00,29.2,21.0,29.46,NNW,343,0.0,0.0,71,0.00,,---,0.08,VWS V12.08,2013-03-26 03:01:00,
2013-03-25 22:06:00,29.0,20.8,29.47,NNW,343,0.0,0.0,71,0.00,,---,0.08,VWS V12.08,2013-03-26 03:06:00,
2013-03-25 22:11:00,29.0,21.1,29.46,NNW,343,0.0,0.0,72,0.00,,---,0.08,VWS V12.08,2013-03-26 03:11:00,
2013-03-25 22:16:00,28.9,20.7,29.46,NNW,347,0.0,0.0,71,0.00,,---,0.08,VWS V12.08,2013-03-26 03:16:00,
2013-03-25 22:21:00,28.9,21.0,29.47,NNW,346,0.0,0.0,72,0.00,,---,0.08,VWS V12.08,2013-03-26 03:21:00,
2013-03-25 22:27:00,28.8,20.9,29.46,NNW,345,0.0,0.0,72,0.00,,---,0.08,VWS V12.08,2013-03-26 03:27:00,
2013-03-25 22:32:00,28.6,20.7,29.47,NNW,346,0.0,0.0,72,0.00,,---,0.08,VWS V12.08,2013-03-26 03:32:00,
2013-03-25 22:37:00,28.6,20.7,29.47,NNW,346,0.0,0.0,72,0.00,,---,0.08,VWS V12.08,2013-03-26 03:37:00,
2013-03-25 22:42:00,28.5,20.6,29.47,NNW,345,0.0,0.0,72,0.00,,---,0.08,VWS V12.08,2013-03-26 03:42:00,
2013-03-25 22:47:00,28.5,20.6,29.47,NNW,345,0.0,0.0,72,0.00,,---,0.08,VWS V12.08,2013-03-26 03:47:00,
2013-03-25 22:52:00,28.4,20.5,29.47,NNW,345,0.0,0.0,72,0.00,,---,0.08,VWS V12.08,2013-03-26 03:52:00,
2013-03-25 22:58:00,28.3,20.4,29.48,NNW,345,0.0,1.0,72,0.00,,---,0.08,VWS V12.08,2013-03-26 03:58:00,
2013-03-25 23:00:00,28.3,20.4,29.48,NNW,345,0.0,0.0,72,0.00,,---,0.08,VWS V12.08,2013-03-26 04:00:00,
2013-03-25 23:02:00,28.2,20.4,29.48,NNW,345,0.0,0.0,72,0.00,,---,0.08,VWS V12.08,2013-03-26 04:02:00,
2013-03-25 23:03:00,28.2,20.4,29.48,NNW,347,0.0,0.0,72,0.00,,---,0.08,VWS V12.08,2013-03-26 04:03:00,
2013-03-25 23:09:00,28.1,20.2,29.48,NNW,346,0.0,0.0,72,0.00,,---,0.08,VWS V12.08,2013-03-26 04:09:00,
2013-03-25 23:10:00,28.1,20.2,29.47,NNW,346,0.0,0.0,72,0.00,,---,0.08,VWS V12.08,2013-03-26 04:10:00,
2013-03-25 23:15:00,28.1,20.2,29.48,NNW,346,0.0,0.0,72,0.00,,---,0.08,VWS V12.08,2013-03-26 04:15:00,
2013-03-25 23:21:00,28.1,20.6,29.48,NNW,346,0.0,0.0,73,0.00,,---,0.08,VWS V12.08,2013-03-26 04:21:00,
2013-03-25 23:28:00,28.1,20.6,29.48,NNW,346,0.0,1.0,73,0.00,,---,0.08,VWS V12.08,2013-03-26 04:28:00,
2013-03-25 23:34:00,27.8,20.3,29.48,NNW,346,0.0,1.0,73,0.00,,---,0.08,VWS V12.08,2013-03-26 04:34:00,
2013-03-25 23:40:00,27.7,20.2,29.48,NNW,346,0.0,1.0,73,0.00,,---,0.08,VWS V12.08,2013-03-26 04:40:00,
2013-03-25 23:45:00,27.7,20.5,29.48,NNW,346,0.0,1.0,74,0.00,,---,0.08,VWS V12.08,2013-03-26 04:45:00,
2013-03-25 23:51:00,27.7,20.5,29.48,NNW,346,0.0,1.0,74,0.00,,---,0.08,VWS V12.08,2013-03-26 04:51:00,
2013-03-25 23:57:00,27.7,20.5,29.48,NNW,346,0.0,1.0,74,0.00,,---,0.08,VWS V12.08,2013-03-26 04:57:00,